Voltar ao catálogo

STARLINK-32687

AtivoComunicaçõesVLEO
NORAD 63565·PAYLOAD·🇺🇸 United States

Lançado Apr 13, 2025 de Cape Canaveral Space Force Station

Loading…

Próximas Passagens (próximas 24 horas)

TLE

AtualizadoSource: CelesTrak SupGP

Época: Sep 15, 2026, 03:44 UTC

1 63565C 25075T   26258.15604167 -.00012585  00000+0 -45577-3 0  2588
2 63565  42.9996 280.7095 0001121 264.9691  55.7397 15.27588531    11

Acompanhe STARLINK-32687 em tempo real com AllMySat

Download on the App Store